[[{"header":{"parameterUnit":"m.s-1","parameterCategory":2,"la1":30.2992,"la2":30.254,"lo1":-89.0895,"lo2":-89.0443,"dy":0.0025,"dx":0.0025,"nx":19,"ny":19,"refTime":"2026-05-18T21:00:00:Z","depth":"0","parameterNumber":2,"parameterNumberName":"U-component_of_CURRENTS"},"data":[0,0,0,0.1748,0.1749,0.1787,0.1788,0.1877,0.1878,0,0,0,0,0,0,0,0,0,0,0,0.1738,0.1738,0.1748,0.1749,0.1787,0.1788,0.1877,0.1878,0,0,0,0,0,0,0,0,0,0,0,0.1738,0.1738,0.1739,0.1749,0.1787,0.1788,0.1877,0.1837,0,0,0,0,0,0,0,0,0,0,0.1795,0.177,0.1738,0.1739,0.1749,0.1787,0.1788,0.1835,0.184,0.1872,0,0.1883,0,0.1885,0.1886,0.1886,0,0,0,0.1747,0.1766,0.1787,0.1739,0.175,0.1787,0.1769,0.1837,0.1843,0.1879,0.1884,0.1887,0.1886,0.1886,0.1887,0.2053,0.2054,0,0,0.1744,0.1735,0.1783,0.1791,0.1768,0.1768,0.1771,0.184,0.1844,0.1885,0.1889,0.1887,0.1887,0.1888,0.2052,0.2053,0,0,0,0.174,0.1733,0.1752,0.1788,0.1792,0.1769,0.1772,0.1841,0.185,0.189,0.1889,0.1888,0.1889,0.2051,0.2052,0.206,0,0,0,0.1738,0.1731,0.1751,0.1744,0.1791,0.1809,0.1771,0.1845,0.1853,0.1888,0.1888,0.189,0.205,0.2052,0.2057,0.204,0,0,0,0.1735,0.173,0.1739,0.1744,0.1762,0.1808,0.182,0.1847,0.1853,0.1886,0.189,0.2049,0.2051,0.2055,0.2038,0.2052,0,0,0,0.1717,0.1757,0.1739,0.1784,0.1762,0.1837,0.1819,0.1863,0.1895,0.1888,0.205,0.2052,0.2054,0.2036,0.2051,0.2005,0.2008,0,0,0.1764,0.1761,0.1791,0.1777,0.1852,0.1831,0.1907,0.1926,0.1946,0.2027,0.203,0.2058,0.2038,0.2052,0.2145,0.2144,0,0,0,0.1804,0.1826,0.1849,0.1878,0.1917,0.194,0.1962,0.1984,0.2043,0.1976,0.2106,0.2093,0.2101,0.2072,0.2073,0.1826,0.2064,0.2063,0.2063,0.1849,0.1868,0.1922,0.1955,0.199,0.2024,0.2054,0.2092,0.2103,0.2139,0.2135,0.2198,0.2172,0.217,0.1918,0.2188,0.2188,0.2188,0.2188,0.1925,0.195,0.1964,0.2021,0.2038,0.2085,0.2138,0.2144,0.2205,0.2202,0.2209,0.2127,0.217,0.1901,0.2189,0.2189,0.2189,0.2189,0.2189,0.1951,0.1964,0.1991,0.2041,0.2068,0.2096,0.2123,0.2163,0.2205,0.2221,0.2187,0.2186,0.1914,0.2223,0.2223,0.2223,0.2223,0.2223,0.2223,0.1957,0.1988,0.2018,0.2058,0.2063,0.2076,0.211,0.2134,0.2166,0.219,0.2189,0.1913,0.2209,0.2167,0.2224,0.2224,0.2224,0.2224,0.2224,0.2003,0.1995,0.2038,0.2051,0.2056,0.2016,0.2062,0.2067,0.2109,0.2114,0.1859,0.2182,0.2168,0.2168,0.2127,0.217,0.217,0.217,0.217,0.2013,0.2019,0.2043,0.2041,0.2027,0.1988,0.1909,0.191,0.1825,0.1728,0.1697,0.164,0.1653,0.1605,0.1618,0.1565,0.1464,0.1462,0.1461,0.2047,0.2042,0.2045,0.2026,0.1997,0.1925,0.1785,0.1658,0.1511,0.1406,0.1357,0.1387,0.1279,0.132,0.123,0.1267,0.1176,0,0]},{"header":{"parameterUnit":"m.s-1","parameterCategory":2,"la1":30.2992,"la2":30.254,"lo1":-89.0895,"lo2":-89.0443,"dy":0.0025,"dx":0.0025,"nx":19,"ny":19,"refTime":"2026-05-18T21:00:00:Z","depth":"0","parameterNumber":3,"parameterNumberName":"V-component_of_CURRENTS"},"data":[0,0,0,0.0118,0.0119,0.0141,0.0141,0.0149,0.0149,0,0,0,0,0,0,0,0,0,0,0,0.0104,0.0104,0.0118,0.0119,0.0141,0.0141,0.0149,0.0149,0,0,0,0,0,0,0,0,0,0,0,0.0104,0.0104,0.0104,0.0119,0.0141,0.0141,0.0149,0.0137,0,0,0,0,0,0,0,0,0,0,0.0118,0.0108,0.0104,0.0104,0.0119,0.0141,0.0141,0.0137,0.0138,0.0134,0,0.0133,0,0.0145,0.015,0.015,0,0,0,0.0118,0.0107,0.0114,0.0104,0.0119,0.0141,0.0131,0.0138,0.0139,0.0135,0.0134,0.0134,0.0145,0.015,0.015,0.0206,0.0207,0,0,0.0116,0.0108,0.0113,0.0115,0.012,0.013,0.0131,0.0139,0.0137,0.0134,0.0135,0.0145,0.015,0.015,0.0206,0.0207,0,0,0,0.0114,0.0107,0.0114,0.0114,0.0121,0.0131,0.0132,0.0136,0.0139,0.0135,0.0145,0.015,0.015,0.0205,0.0206,0.0238,0,0,0,0.0113,0.0105,0.0113,0.0108,0.0121,0.0132,0.0129,0.0138,0.014,0.0145,0.015,0.015,0.0204,0.0206,0.0236,0.0272,0,0,0,0.0104,0.0105,0.0106,0.0108,0.0119,0.0133,0.0136,0.0139,0.0146,0.015,0.015,0.0204,0.0205,0.0234,0.0268,0.0367,0,0,0,0.0096,0.0086,0.0105,0.0099,0.0119,0.0134,0.0136,0.0145,0.0149,0.015,0.0205,0.0206,0.0233,0.0265,0.0364,0.0408,0.0428,0,0,0.0078,0.0084,0.0081,0.0099,0.0116,0.0131,0.0163,0.0167,0.0173,0.0199,0.02,0.0237,0.0268,0.0367,0.049,0.0508,0,0,0,0.0072,0.0076,0.0081,0.0099,0.0115,0.0161,0.0168,0.0197,0.0239,0.0183,0.0257,0.0276,0.0338,0.0357,0.0371,0.0429,0.0213,0.0212,0.0212,0.0041,0.0063,0.0074,0.0108,0.0128,0.0183,0.0234,0.0281,0.0255,0.0297,0.0316,0.0434,0.0453,0.0465,0.0523,0.0321,0.0321,0.0321,0.0321,0.003,0.005,0.0085,0.0103,0.0162,0.0197,0.03,0.0325,0.0439,0.0383,0.0441,0.0406,0.0483,0.0539,0.0323,0.0323,0.0323,0.0323,0.0322,0.0022,0.0042,0.0047,0.0094,0.0158,0.0222,0.0357,0.0418,0.0484,0.0545,0.0597,0.0596,0.0639,0.0575,0.0576,0.0576,0.0577,0.0577,0.0578,0.002,0.0034,0.0058,0.0099,0.0146,0.0243,0.04,0.0509,0.0637,0.0668,0.0669,0.0698,0.0513,0.0495,0.0587,0.0585,0.0584,0.0583,0.0583,0.0054,0.0044,0.0084,0.012,0.0235,0.0362,0.0478,0.0692,0.0801,0.0875,0.0901,0.0753,0.0764,0.0751,0.074,0.0891,0.0891,0.0891,0.0891,0.0082,0.0077,0.0146,0.0218,0.0331,0.0439,0.0661,0.0827,0.0994,0.1069,0.106,0.0994,0.0978,0.0997,0.0979,0.0971,0.1177,0.1177,0.1178,0.0128,0.0135,0.0203,0.0257,0.0386,0.0544,0.0735,0.091,0.1123,0.1193,0.114,0.1128,0.1027,0.0998,0.1017,0.0987,0.0967,0,0]}],[{"header":{"parameterUnit":"m.s-1","parameterCategory":2,"la1":30.2992,"la2":30.254,"lo1":-89.0895,"lo2":-89.0443,"dy":0.0025,"dx":0.0025,"nx":19,"ny":19,"refTime":"2026-05-18T21:00:00:Z","depth":"2","parameterNumber":2,"parameterNumberName":"U-component_of_CURRENTS"},"data":[0,0,0,0.1483,0.1485,0.1551,0.1551,0.1616,0.1617,0,0,0,0,0,0,0,0,0,0,0,0.147,0.1471,0.1483,0.1485,0.1551,0.1551,0.1616,0.1617,0,0,0,0,0,0,0,0,0,0,0,0.1469,0.1471,0.1472,0.1485,0.1551,0.1551,0.1616,0.1569,0,0,0,0,0,0,0,0,0,0,0.1506,0.1516,0.147,0.1472,0.1486,0.1551,0.1551,0.1567,0.1572,0.1584,0,0.1611,0,0.1616,0.1622,0.1622,0,0,0,0.1477,0.1512,0.1515,0.1472,0.1486,0.1551,0.1519,0.157,0.1576,0.159,0.1612,0.1614,0.1617,0.1622,0.1623,0.1779,0.178,0,0,0.1473,0.1493,0.1511,0.1519,0.1526,0.1517,0.1521,0.1573,0.1598,0.1612,0.1616,0.1618,0.1623,0.1623,0.1778,0.1779,0,0,0,0.1468,0.1491,0.1492,0.1516,0.153,0.1519,0.1524,0.1596,0.1593,0.1617,0.1619,0.1623,0.1624,0.1776,0.1778,0.1838,0,0,0,0.1465,0.1488,0.1491,0.1504,0.153,0.1571,0.1545,0.1589,0.1595,0.1618,0.1623,0.1625,0.1775,0.1777,0.1833,0.1853,0,0,0,0.1463,0.1488,0.1498,0.1505,0.1534,0.157,0.157,0.1591,0.1597,0.1622,0.1625,0.1774,0.1777,0.1829,0.1847,0.1911,0,0,0,0.1474,0.1498,0.15,0.1532,0.1534,0.1571,0.157,0.1614,0.164,0.1623,0.1775,0.1778,0.1828,0.1843,0.1907,0.1841,0.1855,0,0,0.1498,0.1503,0.1515,0.1517,0.1557,0.156,0.1633,0.1672,0.169,0.1752,0.1755,0.1835,0.1846,0.191,0.2004,0.2012,0,0,0,0.1517,0.154,0.1548,0.1582,0.1596,0.1657,0.1688,0.1725,0.1816,0.1721,0.1876,0.1882,0.1919,0.1873,0.1881,0.1791,0.1791,0.1791,0.1791,0.16,0.159,0.1628,0.164,0.1677,0.1739,0.1799,0.187,0.1863,0.1937,0.1961,0.2091,0.2044,0.2049,0.1999,0.2,0.2,0.2,0.2,0.1665,0.1687,0.1703,0.1746,0.1793,0.1868,0.1944,0.1976,0.209,0.2061,0.2095,0.1976,0.206,0.2006,0.2005,0.2004,0.2004,0.2003,0.2003,0.1738,0.1739,0.178,0.1843,0.1923,0.197,0.2044,0.2114,0.216,0.2206,0.2166,0.2163,0.2105,0.2235,0.2235,0.2236,0.2236,0.2236,0.2237,0.1793,0.1815,0.1875,0.1939,0.1981,0.205,0.2128,0.2165,0.2224,0.2236,0.2235,0.217,0.2163,0.2121,0.2243,0.2242,0.2241,0.224,0.224,0.1838,0.1869,0.1939,0.199,0.2056,0.2056,0.213,0.2171,0.2246,0.2256,0.2253,0.225,0.2224,0.2216,0.2176,0.2306,0.2306,0.2306,0.2306,0.1864,0.1882,0.1966,0.2018,0.2055,0.2053,0.2006,0.1894,0.1956,0.1878,0.1895,0.1788,0.1798,0.1739,0.1742,0.1689,0.1692,0.169,0.1689,0.1871,0.1903,0.1949,0.2009,0.2037,0.2,0.1879,0.1457,0.1227,0.165,0.1632,0.2295,0.2184,0.2181,0.2126,0.2118,0.2047,0,0]},{"header":{"parameterUnit":"m.s-1","parameterCategory":2,"la1":30.2992,"la2":30.254,"lo1":-89.0895,"lo2":-89.0443,"dy":0.0025,"dx":0.0025,"nx":19,"ny":19,"refTime":"2026-05-18T21:00:00:Z","depth":"2","parameterNumber":3,"parameterNumberName":"V-component_of_CURRENTS"},"data":[0,0,0,-0.0481,-0.0483,-0.0522,-0.0522,-0.0549,-0.055,0,0,0,0,0,0,0,0,0,0,0,-0.0468,-0.0469,-0.0481,-0.0483,-0.0522,-0.0522,-0.0549,-0.055,0,0,0,0,0,0,0,0,0,0,0,-0.0468,-0.0469,-0.0469,-0.0483,-0.0522,-0.0522,-0.0549,-0.0524,0,0,0,0,0,0,0,0,0,0,-0.0487,-0.0484,-0.0469,-0.0469,-0.0483,-0.0522,-0.0522,-0.0522,-0.0525,-0.0527,0,-0.0541,0,-0.0549,-0.0552,-0.0552,0,0,0,-0.0476,-0.0482,-0.0491,-0.0469,-0.0484,-0.0522,-0.0502,-0.0524,-0.0527,-0.053,-0.0541,-0.0543,-0.0549,-0.0552,-0.0552,-0.0593,-0.0593,0,0,-0.0473,-0.0475,-0.0489,-0.0493,-0.0504,-0.0501,-0.0504,-0.0526,-0.0534,-0.0541,-0.0543,-0.055,-0.0552,-0.0552,-0.0593,-0.0593,0,0,0,-0.0472,-0.0473,-0.0482,-0.0492,-0.0503,-0.0503,-0.0505,-0.0533,-0.0536,-0.0544,-0.055,-0.0552,-0.0553,-0.0593,-0.0593,-0.0577,0,0,0,-0.047,-0.0473,-0.0482,-0.0482,-0.0503,-0.0523,-0.0512,-0.0534,-0.0537,-0.055,-0.0552,-0.0553,-0.0592,-0.0593,-0.0577,-0.0539,0,0,0,-0.0465,-0.0472,-0.0479,-0.0482,-0.0503,-0.0523,-0.0527,-0.0535,-0.0541,-0.0552,-0.0553,-0.0592,-0.0593,-0.0576,-0.054,-0.0418,0,0,0,-0.046,-0.0477,-0.048,-0.0496,-0.0502,-0.0521,-0.0527,-0.0553,-0.0565,-0.0552,-0.0592,-0.0593,-0.0576,-0.0541,-0.0421,-0.017,-0.0138,0,0,-0.0475,-0.0479,-0.0485,-0.0488,-0.05,-0.0514,-0.0529,-0.0556,-0.0572,-0.0581,-0.0583,-0.0577,-0.054,-0.0418,-0.0203,-0.0169,0,0,0,-0.0484,-0.0493,-0.0496,-0.0505,-0.0515,-0.0521,-0.055,-0.0557,-0.0579,-0.0583,-0.0593,-0.057,-0.0493,-0.0349,-0.0323,-0.0596,-0.0596,-0.0595,-0.0595,-0.051,-0.0504,-0.0512,-0.051,-0.0519,-0.0537,-0.0534,-0.0552,-0.0579,-0.0591,-0.057,-0.0484,-0.0336,-0.0312,-0.0602,-0.0602,-0.0602,-0.0602,-0.0602,-0.0531,-0.0527,-0.0522,-0.0535,-0.0529,-0.0549,-0.0532,-0.0545,-0.0493,-0.0561,-0.0486,-0.0357,-0.0281,-0.0601,-0.0601,-0.0601,-0.0601,-0.0601,-0.0601,-0.0548,-0.0539,-0.0557,-0.0558,-0.056,-0.0559,-0.0479,-0.0483,-0.046,-0.0413,-0.0187,-0.0184,-0.0408,-0.0358,-0.0357,-0.0357,-0.0356,-0.0356,-0.0355,-0.055,-0.0557,-0.0569,-0.0575,-0.0573,-0.0534,-0.0437,-0.0345,-0.0171,-0.0115,-0.0112,-0.04,-0.0408,-0.0392,-0.0345,-0.0347,-0.0348,-0.0349,-0.035,-0.0537,-0.0555,-0.056,-0.0565,-0.0527,-0.038,-0.0302,0.0019,0.013,0.0265,0.009,0.0075,0.0124,0.0104,0.0133,0.0313,0.0313,0.0313,0.0314,-0.0518,-0.0531,-0.0518,-0.0503,-0.0435,-0.0302,0.0069,0.0378,0.0534,0.0643,0.0628,0.0592,0.056,0.0627,0.0595,0.0631,0.0942,0.0942,0.0943,-0.0486,-0.0491,-0.0463,-0.0462,-0.0389,-0.0148,0.0273,0.0649,0.0914,0.0957,0.0624,0.0378,0.0281,0.0247,0.0309,0.0274,0.0316,0,0]}],[{"header":{"parameterUnit":"m.s-1","parameterCategory":2,"la1":30.2992,"la2":30.254,"lo1":-89.0895,"lo2":-89.0443,"dy":0.0025,"dx":0.0025,"nx":19,"ny":19,"refTime":"2026-05-18T21:00:00:Z","depth":"4","parameterNumber":2,"parameterNumberName":"U-component_of_CURRENTS"},"data":[0,0,0,0.0113,0.0114,0.0156,0.0156,0.0236,0.0236,0,0,0,0,0,0,0,0,0,0,0,0.0103,0.0103,0.0113,0.0114,0.0156,0.0156,0.0236,0.0236,0,0,0,0,0,0,0,0,0,0,0,0.0103,0.0103,0.0103,0.0114,0.0156,0.0156,0.0235,0.0201,0,0,0,0,0,0,0,0,0,0,0.0158,0.015,0.0103,0.0103,0.0114,0.0156,0.0157,0.0199,0.0203,0.022,0,0.022,0,0.0223,0.0241,0.0241,0,0,0,0.0128,0.0147,0.0144,0.0103,0.0114,0.0156,0.0141,0.0201,0.0205,0.0225,0.0221,0.0224,0.0224,0.0241,0.0242,0.0341,0.0341,0,0,0.0125,0.0127,0.0141,0.0147,0.0118,0.0139,0.0142,0.0204,0.0214,0.0221,0.0225,0.0225,0.0242,0.0242,0.034,0.0341,0,0,0,0.0109,0.0126,0.0122,0.0144,0.0146,0.014,0.0143,0.0212,0.0206,0.0226,0.0226,0.0242,0.0243,0.034,0.0341,0.0349,0,0,0,0.0109,0.0115,0.0121,0.0125,0.0144,0.0178,0.015,0.0202,0.0209,0.0226,0.0242,0.0244,0.0339,0.034,0.0347,0.0354,0,0,0,0.0103,0.0115,0.0114,0.0125,0.0134,0.0176,0.0176,0.0204,0.0208,0.0241,0.0244,0.0339,0.034,0.0346,0.0352,0.0435,0,0,0,0.0111,0.0086,0.0114,0.0092,0.0134,0.0136,0.0176,0.0201,0.0227,0.0243,0.0339,0.034,0.0345,0.0351,0.0432,0.0251,0,0,0,0.0074,0.0082,0.0066,0.0091,0.007,0.0131,0.0155,0.0213,0.0258,0.0321,0.0324,0.0348,0.0352,0.0434,0.0332,0,0,0,0,0.005,0.0035,0.0032,0.0036,0.0057,0.0106,0.0166,0.0218,0.0314,0.0278,0.0373,0.0376,0.0428,0.0315,0.0347,0.0347,0.0347,0.0347,0.0346,0.0003,0.0007,-0.0012,-0.0001,0.0018,0.0105,0.0163,0.0258,0.0302,0.0364,0.0401,0.0494,0.0374,0.0421,0.0421,0.0421,0.0421,0.0421,0.0421,-0.0058,-0.0069,-0.0038,-0.0057,0.001,0.0057,0.0191,0.0263,0.0425,0.043,0.048,0.0353,0.0423,0.0423,0.0422,0.0422,0.0422,0.0422,0.0422,-0.0098,-0.0099,-0.0097,-0.0084,-0.0023,0.0067,0.0191,0.0331,0.044,0.0505,0.0463,0.0529,0.051,0.0577,0.0577,0.0577,0.0578,0.0578,0.0578,-0.0125,-0.0124,-0.0128,-0.0103,-0.007,0.0039,0.0238,0.0323,0.0466,0.0472,0.0557,0.0547,0.0542,0.0522,0.0584,0.0583,0.0582,0.0582,0.0581,-0.0181,-0.0154,-0.0172,-0.0155,-0.0081,-0.0004,0.018,0.0309,0.0415,0.0436,0.0458,0.0462,0.0456,0.0455,0.043,0.0468,0.0466,0.0464,0,-0.0193,-0.0191,-0.0188,-0.0174,-0.0128,-0.0024,0.0064,0.0171,0.0303,0.0294,0.0416,0.0438,0.0441,0.0428,0.0424,0.0391,0,0,0,-0.0205,-0.0203,-0.0207,-0.0197,-0.0154,-0.0041,0.009,0.0116,0.0283,0.0274,0.0412,0.0426,0.0422,0.0603,0.0606,0.06,0.0569,0,0]},{"header":{"parameterUnit":"m.s-1","parameterCategory":2,"la1":30.2992,"la2":30.254,"lo1":-89.0895,"lo2":-89.0443,"dy":0.0025,"dx":0.0025,"nx":19,"ny":19,"refTime":"2026-05-18T21:00:00:Z","depth":"4","parameterNumber":3,"parameterNumberName":"V-component_of_CURRENTS"},"data":[0,0,0,0.0188,0.0189,0.0248,0.0248,0.0344,0.0345,0,0,0,0,0,0,0,0,0,0,0,0.0172,0.0172,0.0188,0.0189,0.0248,0.0248,0.0344,0.0345,0,0,0,0,0,0,0,0,0,0,0,0.0172,0.0172,0.0173,0.0189,0.0248,0.0248,0.0343,0.0295,0,0,0,0,0,0,0,0,0,0,0.0236,0.0206,0.0172,0.0173,0.0189,0.0248,0.0248,0.0293,0.0298,0.0321,0,0.0331,0,0.0337,0.0351,0.0351,0,0,0,0.0195,0.0201,0.0226,0.0173,0.019,0.0247,0.0223,0.0296,0.0302,0.0329,0.0333,0.0336,0.0339,0.0352,0.0352,0.0494,0.0495,0,0,0.0191,0.0175,0.0222,0.023,0.0207,0.0221,0.0225,0.0299,0.0302,0.0333,0.0338,0.034,0.0352,0.0353,0.0493,0.0494,0,0,0,0.0178,0.0172,0.0196,0.0227,0.0234,0.0222,0.0227,0.0298,0.0309,0.0339,0.0341,0.0353,0.0354,0.0492,0.0493,0.0539,0,0,0,0.0177,0.0165,0.0194,0.0184,0.0232,0.0261,0.0224,0.0304,0.0312,0.0341,0.0353,0.0355,0.0491,0.0493,0.0536,0.0554,0,0,0,0.0169,0.0163,0.0173,0.0183,0.0206,0.026,0.0274,0.0305,0.0313,0.0351,0.0355,0.049,0.0492,0.0533,0.0549,0.0581,0,0,0,0.0147,0.0199,0.0172,0.0233,0.0206,0.0309,0.0274,0.0346,0.0388,0.0353,0.0491,0.0493,0.0532,0.0547,0.0578,0.046,0,0,0,0.0212,0.0206,0.0247,0.0225,0.0324,0.0301,0.0399,0.0427,0.0422,0.0467,0.047,0.0537,0.0549,0.0581,0.0579,0,0,0,0,0.0268,0.0292,0.0321,0.0361,0.0414,0.0442,0.0474,0.0484,0.0522,0.0452,0.0565,0.0572,0.0589,0.0514,0.0503,0.0503,0.0502,0.0502,0.0502,0.0329,0.0357,0.0424,0.0461,0.0512,0.0559,0.0582,0.0597,0.0601,0.0623,0.063,0.0714,0.0639,0.0654,0.0654,0.0654,0.0655,0.0655,0.0655,0.0409,0.0437,0.0467,0.0542,0.0573,0.065,0.0686,0.0685,0.0727,0.0704,0.0719,0.0594,0.066,0.0659,0.0658,0.0658,0.0657,0.0657,0.0657,0.042,0.0437,0.0481,0.056,0.0643,0.0702,0.0777,0.08,0.0776,0.0789,0.072,0.075,0.0722,0.0813,0.0813,0.0813,0.0813,0.0814,0.0814,0.0402,0.0448,0.0501,0.0588,0.066,0.0761,0.085,0.0859,0.0851,0.0768,0.0821,0.0767,0.0762,0.0732,0.0818,0.0817,0.0816,0.0816,0.0816,0.0406,0.0425,0.0504,0.0573,0.0725,0.0788,0.0897,0.086,0.0852,0.078,0.0745,0.0747,0.0717,0.0713,0.068,0.0754,0.0752,0.0751,0,0.0391,0.0409,0.0515,0.0623,0.0715,0.0809,0.079,0.0795,0.0742,0.071,0.083,0.0793,0.0792,0.076,0.0754,0.0717,0,0,0,0.0383,0.0421,0.0494,0.0609,0.0716,0.0726,0.0777,0.0731,0.0767,0.0701,0.0721,0.0729,0.0801,0.0829,0.0789,0.0783,0.0733,0,0]}]]